This is the latest recevied weather packets stored in our database for station/object WW4HG. If no packets are shown the sender has not sent any weather packets the latest 10 day(s).
| Time | Temp. | Humidity | Pressure | Rain* | Wind** | Luminosity | Snow |
|---|---|---|---|---|---|---|---|
| 1778271867 | 21.11° C | 39% | 1015.3 hPa | 0 mm | - | 112 W/m² | - |
| 1778271564 | 21.11° C | 39% | 1015.3 hPa | 0 mm | - | 118 W/m² | - |
| 1778271261 | 21.11° C | 39% | 1015.3 hPa | 0 mm | - | 105 W/m² | - |
| 1778270957 | 21.11° C | 38% | 1016 hPa | 0 mm | - | 106 W/m² | - |
| 1778270654 | 20.56° C | 39% | 1015.6 hPa | 0 mm | - | 126 W/m² | - |
| 1778270349 | 20.56° C | 39% | 1015.6 hPa | 0 mm | - | 128 W/m² | - |
| 1778270047 | 20.56° C | 38% | 1016 hPa | 0 mm | - | 121 W/m² | - |
| 1778269737 | 20.56° C | 39% | 1016 hPa | 0 mm | - | 104 W/m² | - |
| 1778269435 | 20.56° C | 39% | 1016.3 hPa | 0 mm | - | 111 W/m² | - |
| 1778269132 | 20.56° C | 39% | 1016.3 hPa | 0 mm | - | 123 W/m² | - |
| 1778268828 | 21.11° C | 38% | 1016 hPa | 0 mm | - | 118 W/m² | - |
| 1778268525 | 21.11° C | 37% | 1016.7 hPa | 0 mm | - | 125 W/m² | - |
| 1778268222 | 21.11° C | 38% | 1016 hPa | 0 mm | - | 127 W/m² | - |
| 1778267919 | 21.11° C | 37% | 1016.3 hPa | 0 mm | - | 139 W/m² | - |
| 1778267616 | 21.11° C | 38% | 1016.3 hPa | 0 mm | - | 150 W/m² | - |
| 1778267313 | 21.11° C | 38% | 1016.3 hPa | 0 mm | - | 144 W/m² | - |
| 1778267010 | 20.56° C | 39% | 1016.7 hPa | 0 mm | - | 156 W/m² | - |
| 1778266706 | 20.56° C | 38% | 1016.7 hPa | 0 mm | - | 156 W/m² | - |
| 1778266404 | 20.56° C | 38% | 1016.3 hPa | 0 mm | - | 170 W/m² | - |
| 1778266101 | 20.56° C | 38% | 1016.7 hPa | 0 mm | - | 283 W/m² | - |
| 1778265798 | 20.56° C | 39% | 1017 hPa | 0 mm | - | 295 W/m² | - |
| 1778265495 | 20.56° C | 37% | 1016.7 hPa | 0 mm | - | 264 W/m² | - |
| 1778265191 | 20.56° C | 38% | 1017 hPa | 0 mm | - | 284 W/m² | - |
| 1778264886 | 20.56° C | 38% | 1016.7 hPa | 0 mm | - | 239 W/m² | - |
| 1778264583 | 20.56° C | 38% | 1016.7 hPa | 0 mm | - | 257 W/m² | - |
* Rain latest hour (hover to see other rain measurements)
** Current wind speed in m/s (hover to see current wind gust speed)